• Join FlightAware (Why Join?)
  • Login
  • US Flag 
12:51PM EDT


 

Airport Tracker/Info


-or-


 

Live Flight TrackerFlight Track Log ✈ UAL1169 ✈ 04-Jul-2013 ✈ KIAH - KLAX

Flight Track Log - Related Links

Times and Time Zones

All times are in EDT time to prevent confusion due to time zone crossing. See the UAL1169 flight status page for this flight to view local times or setup timezone preferences in your user account.

Time Position Orientation Groundspeed Altitude Reporting Facility
EDT Latitude Longitude Course Direction KTS MPH feet Rate Location/Type
10:16AM 29.9917 -95.3714 291° West 196 226 1,100  Level Houston Center
10:17AM 29.9881 -95.4247 266° West 203 234 2,600 1,500 Climbing Houston Center
10:18AM 30.0130 -95.6077 279° West  Level FlightAware Approximate
10:18AM 29.9833 -95.4911 265° West 249 287 3,900  Level Houston Center
10:19AM 30.0279 -95.7458 277° West  Level FlightAware Approximate
10:19AM 29.9903 -95.5789 275° West 276 318 6,100  Level Houston Center
10:20AM 30.0404 -95.8842 276° West  Level FlightAware Approximate
10:20AM 30.0092 -95.6869 281° West 286 329 9,500  Level Houston Center
10:21AM 30.0571 -96.0214 291° West  Level FlightAware Approximate
10:21AM 30.0261 -95.7847 281° West 313 360 11,300  Level Houston Center
10:22AM 30.0442 -95.8964 281° West 353 406 13,100 1,980 Climbing Houston Center
10:23AM 30.0625 -96.0172 280° West 380 437 15,400 2,040 Climbing Houston Center
10:24AM 30.0808 -96.1281 281° West 385 443 17,300 2,160 Climbing Houston Center
10:25AM 30.1039 -96.2811 280° West 403 464 19,800 2,220 Climbing Houston Center
10:26AM 30.1236 -96.4086 280° West 406 467 21,900 1,800 Climbing Houston Center
10:27AM 30.1444 -96.5433 280° West 412 474 23,600 1,620 Climbing Houston Center
10:28AM 30.1644 -96.6778 280° West 421 484 25,200 1,560 Climbing Houston Center
10:29AM 30.1844 -96.8150 280° West 426 490 26,800 1,560 Climbing Houston Center
10:30AM 30.2053 -96.9536 280° West 431 496 28,400 1,980 Climbing Houston Center
10:31AM 30.2250 -97.0883 280° West 421 484 30,900 1,920 Climbing Houston Center
10:32AM 30.2469 -97.2147 281° West 402 463 32,400 1,320 Climbing Houston Center
10:33AM 30.2747 -97.3389 285° West 394 453 33,700 780 Climbing Houston Center
10:34AM 30.3039 -97.4625 285° West 394 453 34,000 120 Climbing Houston Center
10:35AM 30.3322 -97.5894 285° West 400 460 34,000  Level Houston Center
10:36AM 30.3611 -97.7161 285° West 401 461 34,000  Level Houston Center
10:37AM 30.3897 -97.8422 285° West 400 460 34,000  Level Houston Center
10:38AM 30.4167 -97.9683 284° West 397 457 34,000  Level Houston Center
10:39AM 30.4408 -98.0967 282° West 403 464 34,000  Level Houston Center
10:40AM 30.4503 -98.2286 275° West 407 468 34,000  Level Houston Center
10:41AM 30.4600 -98.3622 275° West 411 473 34,000  Level Houston Center
10:42AM 30.4672 -98.4944 274° West 410 472 34,000  Level Houston Center
10:43AM 30.4753 -98.6508 273° West 412 474 34,000  Level Houston Center
10:44AM 30.4831 -98.7853 274° West 414 476 34,000  Level Houston Center
10:45AM 30.4908 -98.9225 274° West 421 484 34,000  Level Houston Center
10:46AM 30.4975 -99.0589 273° West 423 487 34,000  Level Houston Center
10:47AM 30.5061 -99.1967 274° West 421 484 34,000  Level Houston Center
10:48AM 30.5136 -99.3319 274° West 423 487 34,000  Level Houston Center
10:49AM 30.5194 -99.4669 273° West 421 484 34,000  Level Houston Center
10:50AM 30.5272 -99.6017 274° West 421 484 34,000  Level Houston Center
10:51AM 30.5339 -99.7375 273° West 424 488 34,000  Level Houston Center
10:52AM 30.5372 -99.8725 272° West 428 493 34,000  Level Houston Center
10:53AM 30.5442 -100.0083 273° West 427 491 34,000  Level Houston Center
10:55AM 30.5522 -100.1761 273° West 441 507 34,000  Level Houston Center
10:56AM 30.5594 -100.3164 273° West 440 506 34,000  Level Houston Center
10:57AM 30.5656 -100.4558 273° West 439 505 34,000  Level Houston Center
10:58AM 30.5714 -100.5953 273° West 437 503 34,000  Level Houston Center
10:59AM 30.5778 -100.7356 273° West 438 504 34,000  Level Houston Center
11:00AM 30.5822 -100.8758 272° West 438 504 34,000  Level Houston Center
11:01AM 30.5883 -101.0161 273° West 439 505 34,000  Level Houston Center
11:02AM 30.5944 -101.1864 272° West 441 507 34,000  Level Houston Center
11:03AM 30.5997 -101.3311 272° West 448 516 34,000  Level Houston Center
11:04AM 30.6108 -101.4778 275° West 461 531 34,000  Level Houston Center
11:05AM 30.6378 -101.6236 282° West 453 521 34,000  Level Houston Center
11:06AM 30.6647 -101.7639 283° West 446 513 34,000  Level Houston Center
11:07AM 30.6914 -101.9050 282° West 447 514 34,000  Level Houston Center
11:08AM 30.7317 -102.0378 289° West 441 507 34,000  Level Houston Center
11:09AM 30.7728 -102.1703 290° West 435 501 34,000  Level Houston Center
11:10AM 30.8139 -102.3014 290° West 432 497 34,000  Level Houston Center
11:11AM 30.8611 -102.4564 290° West 430 495 34,000  Level Albuquerque Center
11:12AM 30.9014 -102.5878 290° West 428 493 34,000  Level Albuquerque Center
11:13AM 30.9408 -102.7203 289° West 430 495 34,000  Level Albuquerque Center
11:14AM 30.9808 -102.8522 290° West 431 496 34,000  Level Albuquerque Center
11:15AM 31.0197 -102.9842 289° West 431 496 34,000  Level Albuquerque Center
11:16AM 31.0589 -103.1156 289° West 430 495 34,000  Level Albuquerque Center
11:17AM 31.1072 -103.2775 289° West 436 502 34,000  Level Albuquerque Center
11:18AM 31.1469 -103.4119 289° West 438 504 34,000  Level Albuquerque Center
11:19AM 31.1858 -103.5472 289° West 439 505 34,000  Level Albuquerque Center
11:20AM 31.2256 -103.6831 289° West 441 507 34,000  Level Albuquerque Center
11:21AM 31.2683 -103.8300 289° West 443 510 34,000  Level Albuquerque Center
11:22AM 31.3075 -103.9653 289° West 441 507 34,000  Level Albuquerque Center
11:23AM 31.3478 -104.1014 289° West 444 511 34,000  Level Albuquerque Center
11:24AM 31.3861 -104.2358 289° West 440 506 34,000  Level Albuquerque Center
11:25AM 31.4258 -104.3711 289° West 441 507 34,000  Level Albuquerque Center
11:26AM 31.4717 -104.5325 288° West 439 505 34,000  Level Albuquerque Center
11:27AM 31.5106 -104.6672 289° West 439 505 34,000  Level Albuquerque Center
11:28AM 31.5494 -104.8036 289° West 442 509 34,000  Level Albuquerque Center
11:30AM 31.5869 -104.9400 288° West 442 509 34,000  Level Albuquerque Center
11:31AM 31.6258 -105.0778 288° West 446 513 34,000  Level Albuquerque Center
11:32AM 31.6636 -105.2147 288° West 446 513 34,000  Level Albuquerque Center
11:33AM 31.7108 -105.3831 288° West 454 522 34,000  Level Albuquerque Center
11:34AM 31.7478 -105.5217 287° West 449 517 34,000  Level Albuquerque Center
11:35AM 31.7869 -105.6625 288° West 454 522 34,000  Level Albuquerque Center
11:36AM 31.8250 -105.8025 288° West 452 520 34,000  Level Albuquerque Center
11:37AM 31.8633 -105.9422 288° West 451 519 34,000  Level Albuquerque Center
11:38AM 31.9031 -106.0892 288° West 452 520 34,000  Level Albuquerque Center
11:39AM 31.9425 -106.2306 288° West 454 522 34,000  Level Albuquerque Center
11:40AM 31.9794 -106.3756 287° West 461 531 34,000  Level Albuquerque Center
11:41AM 32.0206 -106.5492 286° West 459 528 34,000  Level Albuquerque Center
11:42AM 32.0567 -106.6942 286° West 461 531 34,000  Level Albuquerque Center
11:43AM 32.0933 -106.8403 287° West 463 533 34,000  Level Albuquerque Center
11:44AM 32.1292 -106.9869 286° West 464 534 34,000  Level Albuquerque Center
11:45AM 32.1639 -107.1350 286° West 464 534 34,000  Level Albuquerque Center
11:46AM 32.2014 -107.3017 285° West 469 540 34,000  Level Albuquerque Center
11:47AM 32.2364 -107.4489 286° West 469 540 34,000  Level Albuquerque Center
11:48AM 32.2689 -107.5786 287° West 459 528 34,000  Level Albuquerque Center
11:49AM 32.3031 -107.7228 286° West 454 522 34,000  Level Albuquerque Center
11:50AM 32.3383 -107.8636 287° West 449 517 34,000  Level Albuquerque Center
11:51AM 32.3808 -108.0356 286° West 451 519 34,000  Level Albuquerque Center
11:52AM 32.4164 -108.1783 286° West 453 521 34,000  Level Albuquerque Center
11:53AM 32.4497 -108.3206 286° West 450 518 34,000  Level Albuquerque Center
11:54AM 32.4906 -108.4611 289° West 451 519 34,000  Level Albuquerque Center
11:55AM 32.5314 -108.6008 289° West 450 518 34,000  Level Albuquerque Center
11:56AM 32.5719 -108.7417 289° West 451 519 34,000  Level Albuquerque Center
11:57AM 32.6114 -108.8831 288° West 452 520 34,000  Level Albuquerque Center
11:58AM 32.6506 -109.0247 288° West 452 520 34,000  Level Albuquerque Center
11:59AM 32.6975 -109.1950 288° West 453 521 34,000  Level Albuquerque Center
12:00PM 32.7367 -109.3386 288° West 455 524 34,000  Level Albuquerque Center
12:01PM 32.7772 -109.4822 289° West 457 526 34,000  Level Albuquerque Center
12:02PM 32.8169 -109.6256 288° West 457 526 34,000  Level Albuquerque Center
12:03PM 32.8564 -109.7683 288° West 457 526 34,000  Level Albuquerque Center
12:04PM 32.8947 -109.9125 288° West 457 526 34,000  Level Albuquerque Center
12:05PM 32.9428 -110.0575 292° West 462 532 34,000  Level Albuquerque Center
12:06PM 32.9836 -110.2019 289° West 462 532 34,000  Level Albuquerque Center
12:08PM 33.0297 -110.3758 288° West 459 528 34,000  Level Albuquerque Center
12:09PM 33.0689 -110.5186 288° West 456 525 34,000  Level Albuquerque Center
12:10PM 33.1078 -110.6628 288° West 456 525 34,000  Level Albuquerque Center
12:11PM 33.1453 -110.8064 287° West 456 525 34,000  Level Albuquerque Center
12:12PM 33.1822 -110.9500 287° West 454 522 34,000  Level Albuquerque Center
12:13PM 33.2211 -111.0922 288° West 450 518 34,000  Level Albuquerque Center
12:14PM 33.2586 -111.2361 287° West 452 520 34,000  Level Albuquerque Center
12:15PM 33.2958 -111.3797 287° West 453 521 34,000  Level Albuquerque Center
12:16PM 33.3400 -111.5522 287° West 452 520 34,000  Level Albuquerque Center
12:17PM 33.3772 -111.6964 287° West 452 520 34,000  Level Albuquerque Center
12:18PM 33.4144 -111.8419 287° West 454 522 34,000  Level Albuquerque Center
12:19PM 33.4508 -111.9858 287° West 452 520 34,000  Level Albuquerque Center
12:20PM 33.4875 -112.1311 287° West 452 520 34,000  Level Albuquerque Center
12:21PM 33.5239 -112.2761 287° West 452 520 34,000  Level Albuquerque Center
12:22PM 33.5603 -112.4214 287° West 452 520 34,000  Level Albuquerque Center
12:23PM 33.5967 -112.5647 287° West 449 517 34,000  Level Albuquerque Center
12:24PM 33.6342 -112.7172 286° West 451 519 34,000  Level Albuquerque Center
12:25PM 33.6750 -112.8836 286° West 452 520 34,000  Level Albuquerque Center
12:26PM 33.7108 -113.0294 286° West 453 521 34,000  Level Albuquerque Center
12:27PM 33.7467 -113.1744 287° West 454 522 34,000  Level Albuquerque Center
12:28PM 33.7808 -113.3214 286° West 455 524 34,000  Level Albuquerque Center
12:29PM 33.8175 -113.4672 287° West 456 525 34,000  Level Albuquerque Center
12:30PM 33.8522 -113.6144 286° West 456 525 34,000  Level Albuquerque Center
12:31PM 33.8872 -113.7611 286° West 457 526 34,000  Level Albuquerque Center
12:32PM 33.9281 -113.9375 286° West 457 526 34,000  Level Albuquerque Center
12:33PM 33.9622 -114.0856 286° West 458 527 34,000  Level Albuquerque Center
12:34PM 33.9794 -114.2386 278° West 457 526 34,000  Level Albuquerque Center
12:35PM 33.9925 -114.3911 276° West 459 528 34,000  Level Albuquerque Center
12:36PM 34.0050 -114.5428 276° West 458 527 34,000  Level Albuquerque Center
12:38PM 34.0294 -114.7897 277° West 454 522 34,000  Level Los Angeles Center
12:39PM 34.0433 -114.9408 276° West 455 524 34,000  Level Los Angeles Center
12:40PM 34.0564 -115.0906 276° West 454 522 34,000  Level Los Angeles Center
12:41PM 34.0689 -115.2425 276° West 455 524 34,000  Level Los Angeles Center
12:42PM 34.0819 -115.3939 276° West 456 525 34,000  Level Los Angeles Center
12:43PM 34.0972 -115.5750 276° West 455 524 34,000  Level Los Angeles Center
12:44PM 34.1089 -115.7253 275° West 454 522 34,000 -420 Level Los Angeles Center
12:45PM 34.0986 -115.8758 265° West 453 521 33,200 -1,500 Descending Los Angeles Center
12:46PM 34.0747 -116.0233 259° West 450 518 30,900 -2,040 Descending Los Angeles Center
12:47PM 34.0533 -116.1719 260° West 452 520 29,100 -1,740 Descending Los Angeles Center
12:48PM 34.0306 -116.3144 259° West 441 507 27,400 -1,920 Descending Los Angeles Center
12:49PM 34.0061 -116.4839 260° West 431 496 25,200 -1,920 Descending Los Angeles Center
12:50PM 33.9939 -116.6244 264° West 425 489 23,500 -1,740 Descending Los Angeles Center
12:51PM 33.9836 -116.7606 265° West 414 476 21,700 -1,740 Descending Los Angeles Center
12:52PM 33.9722 -116.8939 264° West 405 466 20,000 -1,680 Descending Los Angeles Center
12:53PM 33.9625 -117.0211 265° West 388 447 18,300 -1,620 Descending Los Angeles Center
12:54PM 33.9519 -117.1364 264° West 354 407 16,700 -1,500 Descending Los Angeles Center
12:55PM 33.9217 -117.2606 254° West 330 380 15,300 -840 Descending Los Angeles Center
12:56PM 33.9000 -117.3667 256° West 329 379 15,000 -900 Descending Southern California TRACON
12:57PM 33.9500 -117.4500 306° West 323 372 13,500 -1,500 Descending Southern California TRACON
12:58PM 34.0000 -117.5500 301° West 313 360 12,100 -1,440 Descending Southern California TRACON
12:59PM 34.0167 -117.6500 281° West 338 389 10,700 -1,380 Descending Southern California TRACON
01:00PM 34.0000 -117.7500 259° West 290 334 9,400 -1,380 Descending Southern California TRACON
01:01PM 33.9833 -117.8500 259° West 295 339 8,000 -1,320 Descending Southern California TRACON
01:02PM 33.9833 -117.9500 270° West 254 292 6,800 -1,200 Descending Southern California TRACON
01:03PM 33.9667 -118.0167 253° West 234 269 5,600 -1,140 Descending Southern California TRACON
01:04PM 33.9667 -118.1000 270° West 232 267 4,700 -1,020 Descending Southern California TRACON